IRIDIUM 33 DEB, 36080

Orbit data source: Space-Track

IRIDIUM 33 DEB, 36080 is space debris in LEO originally from a launch on Sun, 14 Sep 1997 UTC launched from the Tyuratam Missile And Space Complex (TTMTR). The debris from Iridium 33, an American commercial communications satellite, has been tracked extensively since its accidental collision with the defunct Russian satellite Cosmos 2251 in 2009. This event, occurring at high speed in low Earth orbit (LEO), generated thousands of pieces of space debris, significantly increasing the risk of further collisions. The Iridium 33 debris cloud has impacted space traffic management and orbital debris mitigation strategies, making it a subject of ongoing study in space situational awareness.

Loading next visibility...
Identifier
36080, 1997-051VM
Orbit
LEO
Country
Flag of USUS
Related business
Manufacturer
Unknown
Mission
Spacecraft
Bus & Motor
Unknown
Mass
Unknown
Launch date (UTC)
1997-09-14 (29 years ago)
Launch vehicle
Unknown
Launch site
Tyuratam Missile And Space Complex (TTMTR)
Object type
Payload
Rocket body
Debris
Shape & HBR
Unknown shape, 0.1 m
Radar Cross Section
Small (<0.1 m²)

Expand to show TLE details & history
Last TLE update: 2 weeks ago

TLE from 2 weeks ago
0 IRIDIUM 33 DEB
1 36080U 97051VM  26157.10798166  .00002202  00000-0  59529-3 0  9997
2 36080  86.3103 291.5097 0015851 295.6937  64.2629 14.47346085499502
Epoch: 2026-06-06T02:35Z
TLE epoch observation values (Epoch: 2026-06-06T02:35:29.615Z)
Latitude
Longitude
-1.89198°
Altitude
732.516 km
Speed
7.491 km/s
True Right ascension
19h 26m 02s
True Declination
0° 00' 00"
Sunlit
Object was in full shadow at epoch
Visualization orbit readout
Latitude
Unknown
Longitude
Unknown
Altitude
Unknown
Speed
Unknown
Apparent Right ascension
Unknown
Apparent Declination
Unknown
Sunlit
N/A
Visualization observer readout
Local Sidereal Time
07:07:49
Azimuth
Unknown
Elevation
Unknown
Doppler factor
Unknown
Orbital elements
Apogee altitude
742.547 km
Perigee altitude
720.008 km
Semi-major axis
7,109.414 km
Eccentricity
0.00159
Inclination
86.3103°
RAAN
291.5097°
Arg. of periapsis
295.6937°
True anomaly
64.42666°
Mean anomaly
64.2629°
Eccentric anomaly
64.34477°
Mean motion
3.6207 °/min
Orbital period
99.43 mins
BSTAR
0.00059529
Loading maneuver chart data...
Computing Atmospheric mass density...

Documentation

Showing up to 5 results
|